This is the latest recevied weather packets stored in our database for station/object WB9TLH-11. If no packets are shown the sender has not sent any weather packets the latest 10 day(s).
| Time | Temp. | Humidity | Pressure | Rain* | Wind** | Luminosity | Snow |
|---|---|---|---|---|---|---|---|
| 1777839056 | 16.67° C | 37% | 1015.8 hPa | 0 mm | - | - | - |
| 1777838756 | 16.67° C | 37% | 1015.7 hPa | 0 mm | - | - | - |
| 1777838457 | 16.67° C | 37% | 1015.7 hPa | 0 mm | - | - | - |
| 1777838156 | 17.22° C | 37% | 1015.7 hPa | 0 mm | - | - | - |
| 1777837856 | 17.22° C | 36% | 1015.8 hPa | 0 mm | - | - | - |
| 1777837557 | 16.67° C | 38% | 1015.9 hPa | 0 mm | - | - | - |
| 1777837257 | 17.22° C | 39% | 1015.8 hPa | 0 mm | - | - | - |
| 1777836956 | 17.22° C | 36% | 1016.1 hPa | 0 mm | - | - | - |
| 1777836657 | 17.22° C | 38% | 1016.2 hPa | 0 mm | - | - | - |
| 1777836357 | 16.67° C | 38% | 1016.3 hPa | 0 mm | - | - | - |
| 1777836057 | 16.67° C | 36% | 1016.5 hPa | 0 mm | - | - | - |
| 1777835757 | 17.22° C | 37% | 1016.3 hPa | 0 mm | - | - | - |
| 1777835457 | 16.67° C | 37% | 1016.4 hPa | 0 mm | - | - | - |
| 1777835157 | 16.67° C | 39% | 1016.5 hPa | 0 mm | - | - | - |
| 1777834857 | 16.67° C | 37% | 1016.6 hPa | 0 mm | - | - | - |
| 1777834557 | 16.67° C | 36% | 1016.8 hPa | 0 mm | - | - | - |
| 1777834257 | 16.67° C | 37% | 1017 hPa | 0 mm | - | - | - |
| 1777833957 | 16.67° C | 42% | 1017.1 hPa | 0 mm | - | - | - |
| 1777833657 | 16.11° C | 38% | 1017 hPa | 0 mm | - | - | - |
| 1777833357 | 16.67° C | 36% | 1017.2 hPa | 0 mm | - | - | - |
| 1777833057 | 16.67° C | 38% | 1017.3 hPa | 0 mm | - | - | - |
| 1777832757 | 16.11° C | 37% | 1017.5 hPa | 0 mm | - | - | - |
| 1777832457 | 16.11° C | 37% | 1017.7 hPa | 0 mm | - | - | - |
| 1777832157 | 16.11° C | 38% | 1017.7 hPa | 0 mm | - | - | - |
| 1777831857 | 16.11° C | 38% | 1017.9 hPa | 0 mm | - | - | - |
* Rain latest hour (hover to see other rain measurements)
** Current wind speed in m/s (hover to see current wind gust speed)